SV4JYD-14 Weather Reports


Display with metric or nautical units.
time (UTC)temp
F
wind
direction
speed
MPH
gust
MPH
rain 1hr
in
rain 24hr
in
rain mn
in
humidity
%
barometer
mb
20260508091711 71 360 5.0 11.0 0.00 0.00 0.00 39 1020.0
20260508090211 71 130 5.0 0.0 0.00 0.00 0.00 36 1019.0
20260508084711 71 130 5.0 0.0 0.00 0.00 0.00 40 1019.0
20260508083211 71 140 5.0 0.0 0.00 0.00 0.00 40 1019.0
20260508081540 71 140 5.0 0.0 0.00 0.00 0.00 40 1020.0
20260508080040 70 140 6.0 0.0 0.00 0.00 0.00 48 1019.0
20260508074539 71 140 6.0 0.0 0.00 0.00 0.00 40 1019.0
20260508073039 69 130 8.0 0.0 0.00 0.00 0.00 43 1019.0
20260508071538 69 130 8.0 0.0 0.00 0.00 0.00 56 1019.0
20260508070038 68 150 5.0 0.0 0.00 0.00 0.00 61 1018.0
20260508064538 67 150 5.0 0.0 0.00 0.00 0.00 62 1018.0
20260508063037 67 130 5.0 0.0 0.00 0.00 0.00 63 1019.0
20260508061537 66 130 5.0 0.0 0.00 0.00 0.00 65 1019.0
20260508060037 65 140 4.0 0.0 0.00 0.00 0.00 66 1018.0
20260508054537 65 140 4.0 0.0 0.00 0.00 0.00 67 1018.0
20260508053036 65 0 0.0 0.0 0.00 0.00 0.00 69 1018.0
20260508051537 64 177 1.0 1.0 0.00 0.00 0.00 69 1019.0
20260508050036 63 0 3.0 0.0 0.00 0.00 0.00 70 1019.0
20260508044536 62 0 3.0 0.0 0.00 0.00 0.00 68 1019.0
20260508043036 61 0 0.0 0.0 0.00 0.00 0.00 66 1019.0
20260508041535 60 0 0.0 0.0 0.00 0.00 0.00 66 1019.0
20260508040035 60 0 3.0 0.0 0.00 0.00 0.00 66 1019.0
20260508034535 59 0 3.0 0.0 0.00 0.00 0.00 65 1018.0
20260508033035 59 170 3.0 0.0 0.00 0.00 0.00 65 1019.0
20260508031534 60 170 3.0 0.0 0.00 0.00 0.00 64 1019.0
20260508030034 60 186 4.0 5.0 0.00 0.00 0.00 64 1018.0
20260508024534 59 0 3.0 0.0 0.00 0.00 0.00 63 1018.0
20260508023034 59 0 3.0 0.0 0.00 0.00 0.00 62 1018.0
20260508021533 59 0 3.0 0.0 0.00 0.00 0.00 62 1019.0
20260508020033 59 235 1.0 5.0 0.00 0.00 0.00 60 1018.0
20260508014533 60 0 3.0 0.0 0.00 0.00 0.00 60 1018.0
20260508013033 60 0 3.0 0.0 0.00 0.00 0.00 59 1018.0
20260508011532 60 0 3.0 0.0 0.00 0.00 0.00 59 1019.0
20260508010032 61 236 4.0 5.0 0.00 0.00 0.00 57 1019.0
20260508004532 62 180 3.0 0.0 0.00 0.00 0.00 56 1019.0
20260508003031 62 180 3.0 0.0 0.00 0.00 0.00 56 1019.0
20260508001531 62 180 3.0 0.0 0.00 0.00 0.00 56 1019.0
20260508000031 62 360 1.0 5.0 0.00 0.00 0.00 57 1019.0
20260507234531 62 360 1.0 5.0 0.00 0.00 0.00 58 1019.0
20260507233030 62 360 1.0 5.0 0.00 0.00 0.00 58 1019.0
20260507231530 61 360 2.0 5.0 0.00 0.00 0.00 57 1019.0
20260507230030 62 360 1.0 5.0 0.00 0.00 0.00 56 1019.0
20260507224530 62 360 2.0 5.0 0.00 0.00 0.00 56 1019.0
20260507223029 62 360 1.0 4.0 0.00 0.00 0.00 56 1019.0
20260507221529 62 360 1.0 2.0 0.00 0.00 0.00 55 1019.0
20260507220029 62 360 1.0 5.0 0.00 0.00 0.00 55 1019.0
20260507214529 63 0 3.0 0.0 0.00 0.00 0.00 54 1019.0
20260507213028 64 0 3.0 0.0 0.00 0.00 0.00 53 1019.0
20260507211528 64 0 3.0 0.0 0.00 0.00 0.00 52 1019.0
20260507210028 64 0 3.0 0.0 0.00 0.00 0.00 52 1019.0
20260507204528 64 0 3.0 0.0 0.00 0.00 0.00 52 1019.0
20260507203028 65 0 3.0 0.0 0.00 0.00 0.00 49 1019.0
20260507201527 66 0 3.0 0.0 0.00 0.00 0.00 49 1019.0
20260507200027 68 0 3.0 0.0 0.00 0.00 0.00 46 1019.0
20260507194527 69 0 3.0 0.0 0.00 0.00 0.00 42 1019.0
20260507193027 71 0 3.0 0.0 0.00 0.00 0.00 37 1019.0
20260507191526 71 0 3.0 0.0 0.00 0.00 0.00 37 1019.0
20260507190026 71 0 3.0 0.0 0.00 0.00 0.00 40 1019.0
20260507184526 69 0 3.0 0.0 0.00 0.00 0.00 44 1019.0
20260507183025 70 240 5.0 0.0 0.00 0.00 0.00 38 1019.0
20260507181525 70 240 5.0 0.0 0.00 0.00 0.00 41 1019.0
20260507180025 69 250 6.0 0.0 0.00 0.00 0.00 54 1018.0
20260507174525 72 250 6.0 0.0 0.00 0.00 0.00 40 1018.0
20260507173024 72 230 8.0 0.0 0.00 0.00 0.00 40 1018.0
20260507171524 74 230 10.0 0.0 0.00 0.00 0.00 38 1018.0
20260507170024 74 230 10.0 0.0 0.00 0.00 0.00 38 1018.0
20260507164524 74 230 10.0 0.0 0.00 0.00 0.00 38 1018.0
20260507163024 74 230 10.0 0.0 0.00 0.00 0.00 38 1018.0
20260507161523 74 230 10.0 0.0 0.00 0.00 0.00 38 1018.0
20260507160023 74 230 9.0 0.0 0.00 0.00 0.00 35 1018.0
20260507154523 74 230 9.0 0.0 0.00 0.00 0.00 35 1018.0
20260507153022 76 230 9.0 0.0 0.00 0.00 0.00 33 1018.0
20260507151522 76 230 9.0 0.0 0.00 0.00 0.00 33 1018.0
20260507150022 76 230 10.0 0.0 0.00 0.00 0.00 33 1018.0
20260507144522 76 230 10.0 0.0 0.00 0.00 0.00 33 1018.0
20260507143022 76 230 11.0 0.0 0.00 0.00 0.00 33 1018.0
20260507141521 76 230 11.0 0.0 0.00 0.00 0.00 33 1019.0
20260507140021 76 210 12.0 0.0 0.00 0.00 0.00 31 1019.0
20260507134520 76 210 12.0 0.0 0.00 0.00 0.00 31 1019.0
20260507133020 78 210 8.0 0.0 0.00 0.00 0.00 29 1019.0
20260507131520 78 210 8.0 0.0 0.00 0.00 0.00 29 1019.0
20260507130019 78 200 6.0 0.0 0.00 0.00 0.00 29 1019.0
20260507124519 78 200 6.0 0.0 0.00 0.00 0.00 29 1019.0
20260507123021 80 160 9.0 0.0 0.00 0.00 0.00 28 1019.0
20260507121519 80 160 9.0 0.0 0.00 0.00 0.00 28 1019.0
20260507120018 78 130 6.0 0.0 0.00 0.00 0.00 27 1019.0
20260507114518 78 130 6.0 0.0 0.00 0.00 0.00 27 1019.0
20260507113018 76 140 9.0 0.0 0.00 0.00 0.00 31 1019.0
20260507111517 76 140 9.0 0.0 0.00 0.00 0.00 31 1019.0
20260507110017 76 140 6.0 0.0 0.00 0.00 0.00 33 1019.0
20260507104517 72 140 6.0 0.0 0.00 0.00 0.00 46 1019.0
20260507103017 71 120 9.0 0.0 0.00 0.00 0.00 47 1019.0
20260507101517 71 120 9.0 0.0 0.00 0.00 0.00 51 1019.0
20260507100016 70 130 10.0 0.0 0.00 0.00 0.00 49 1019.0
20260507094516 72 130 10.0 0.0 0.00 0.00 0.00 45 1019.0
20260507093016 72 130 11.0 0.0 0.00 0.00 0.00 47 1019.0